Location: Grand Rapids
(42.9630°N, 85.6680°W)
Time: 03:33:54
(UTC-04:00)

A-11 Canister half - Pass Details

Date: 30 May 2024
Orbit: 1524 x 1684 km, 47.3° (Epoch: 21 June)

Event Time Altitude Azimuth Distance (km) Brightness Sun altitude
Rises 19:42:23 0° 216° (SW) 4,662 11.8 14.4°
Reaches altitude 10° 19:45:32 10° 211° (SSW) 3,680 11.2 13.9°
Maximum altitude 19:54:18 50° 140° (SE) 1,885 9.3 12.3°
Drops below altitude 10° 20:03:14 10° 69° (ENE) 3,746 10.6 10.8°
Sets 20:06:27 0° 64° (ENE) 4,751 11.2 10.2°
